DW3142 Weather Reports


Display with metric or nautical units.
time (UTC)temp
F
wind
direction
speed
MPH
gust
MPH
rain 1hr
in
rain 24hr
in
rain mn
in
humidity
%
barometer
mb
20260507174509 58 251 2.0 15.0 0.00 0.41 0.00 43 1006.8
20260507173008 57 178 5.0 12.0 0.00 0.41 0.00 41 1006.9
20260507171509 57 234 4.0 12.0 0.00 0.41 0.00 39 1007.1
20260507170007 58 219 5.0 15.0 0.00 0.41 0.00 39 1007.1
20260507164508 59 207 6.0 17.0 0.00 0.41 0.00 39 1007.3
20260507163004 58 207 2.0 13.0 0.00 0.41 0.00 43 1007.2
20260507161504 59 244 5.0 21.0 0.00 0.41 0.00 50 1007.3
20260507160003 58 179 6.0 13.0 0.00 0.41 0.00 47 1007.3
20260507154559 57 207 5.0 12.0 0.00 0.41 0.00 50 1007.5
20260507153058 57 180 5.0 11.0 0.00 0.41 0.00 51 1007.6
20260507151558 55 200 3.0 14.0 0.00 0.41 0.00 60 1008.0
20260507150053 55 176 3.0 9.0 0.00 0.41 0.00 67 1008.0
20260507144555 54 161 5.0 10.0 0.00 0.41 0.00 65 1008.0
20260507143106 54 162 3.0 12.0 0.00 0.41 0.00 66 1007.9
20260507141606 55 265 4.0 11.0 0.00 0.41 0.00 64 1008.0
20260507140047 52 257 1.0 10.0 0.00 0.41 0.00 70 1008.0
20260507134548 53 217 2.0 9.0 0.00 0.41 0.00 69 1008.0
20260507133045 54 170 3.0 10.0 0.00 0.41 0.00 70 1008.2
20260507131552 53 172 3.0 10.0 0.00 0.41 0.00 71 1008.4
20260507130043 51 305 3.0 9.0 0.00 0.41 0.00 72 1008.4
20260507124538 51 218 1.0 7.0 0.00 0.41 0.00 73 1008.3
20260507123034 51 177 2.0 8.0 0.00 0.41 0.00 77 1008.4
20260507121531 50 181 3.0 6.0 0.00 0.41 0.00 77 1008.4
20260507120029 49 202 2.0 6.0 0.00 0.41 0.00 81 1008.4
20260507114528 48 237 1.0 8.0 0.00 0.41 0.00 82 1008.4
20260507113024 47 255 1.0 4.0 0.00 0.41 0.00 85 1008.4
20260507111523 46 217 1.0 3.0 0.00 0.41 0.00 85 1008.5
20260507110022 45 184 0.0 0.0 0.00 0.41 0.00 89 1008.1
20260507104522 43 195 0.0 2.0 0.00 0.41 0.00 92 1008.0
20260507103017 43 195 0.0 2.0 0.00 0.41 0.00 91 1008.0
20260507101516 43 228 0.0 3.0 0.00 0.41 0.00 90 1007.6
20260507100013 44 228 0.0 0.0 0.00 0.41 0.00 90 1008.2
20260507094511 44 228 0.0 3.0 0.00 0.41 0.00 91 1008.2
20260507093010 44 228 1.0 3.0 0.00 0.41 0.00 90 1008.1
20260507091513 45 172 0.0 6.0 0.00 0.41 0.00 89 1008.2
20260507090006 45 172 1.0 8.0 0.00 0.41 0.00 89 1008.1
20260507084504 45 239 1.0 6.0 0.00 0.41 0.00 89 1007.7
20260507083003 45 180 1.0 8.0 0.00 0.41 0.00 90 1007.6
20260507081501 45 181 0.0 8.0 0.00 0.41 0.00 90 1007.5
20260507080120 45 209 1.0 4.0 0.00 0.41 0.00 90 1007.6
20260507074559 45 199 1.0 4.0 0.00 0.41 0.00 91 1007.6
20260507073056 45 220 1.0 4.0 0.00 0.41 0.00 91 1007.3
20260507071554 45 176 0.0 4.0 0.00 0.41 0.00 92 1007.4
20260507064620 46 242 2.0 8.0 0.00 0.41 0.00 91 1007.0
20260507063052 47 207 1.0 8.0 0.00 0.41 0.00 92 1007.4
20260507061545 47 158 2.0 8.0 0.00 0.41 0.00 92 1007.2
20260507060106 47 192 0.0 3.0 0.00 0.41 0.00 93 1007.1
20260507054548 47 188 2.0 9.0 0.00 0.41 0.00 93 1007.2
20260507053041 47 183 1.0 4.0 0.00 0.41 0.00 93 1007.1
20260507051553 47 165 1.0 4.0 0.00 0.41 0.00 92 1006.8
20260507050045 47 215 3.0 11.0 0.00 0.41 0.00 91 1006.8
20260507044537 47 189 2.0 6.0 0.00 0.41 0.00 92 1006.6
20260507043035 48 189 2.0 10.0 0.00 0.41 0.00 92 1007.0
20260507041533 48 182 1.0 8.0 0.01 0.41 0.00 92 1007.0
20260507040030 48 177 2.0 11.0 0.03 0.41 0.00 92 1007.0
20260507034530 48 194 1.0 7.0 0.07 0.41 0.41 92 1006.7
20260507033027 49 182 2.0 6.0 0.08 0.41 0.41 92 1006.8
20260507031524 49 172 1.0 9.0 0.07 0.40 0.40 91 1006.8
20260507030027 51 173 3.0 9.0 0.04 0.37 0.37 91 1006.9
20260507024523 52 251 5.0 9.0 0.04 0.34 0.34 90 1006.8
20260507023013 54 233 4.0 9.0 0.07 0.33 0.33 92 1006.4
20260507021512 55 206 3.0 9.0 0.17 0.33 0.33 93 1006.1
20260507020012 56 322 2.0 5.0 0.17 0.33 0.33 93 1005.5
20260507014513 57 203 0.0 3.0 0.14 0.30 0.30 93 1005.5
20260507013014 58 211 2.0 9.0 0.10 0.26 0.26 92 1005.5
20260507011510 59 140 2.0 5.0 0.00 0.16 0.16 93 1004.9
20260507010010 59 149 2.0 6.0 0.00 0.16 0.16 93 1005.0
20260507004509 59 108 2.0 5.0 0.00 0.17 0.16 93 1004.9
20260507003009 59 113 3.0 6.0 0.00 0.17 0.16 93 1004.8
20260507001513 59 133 2.0 6.0 0.00 0.17 0.16 92 1004.8
20260507000008 59 107 3.0 6.0 0.00 0.17 0.16 92 1004.6
20260506234510 59 136 3.0 8.0 0.00 0.18 0.16 92 1004.5
20260506233011 59 116 2.0 5.0 0.00 0.18 0.16 92 1004.5
20260506231508 60 111 2.0 9.0 0.00 0.18 0.16 92 1004.6
20260506230017 60 121 3.0 7.0 0.00 0.18 0.16 92 1004.5
20260506224506 60 116 2.0 9.0 0.00 0.18 0.16 91 1004.5
20260506223004 60 129 4.0 10.0 0.00 0.18 0.16 91 1004.7
20260506221503 60 92 4.0 10.0 0.00 0.18 0.16 91 1004.7
20260506220005 60 159 4.0 12.0 0.00 0.18 0.16 91 1004.8
20260506214502 61 102 3.0 9.0 0.00 0.18 0.16 91 1004.7
20260506213001 61 97 4.0 12.0 0.00 0.18 0.16 91 1004.9
20260506211601 61 117 4.0 10.0 0.01 0.18 0.16 92 1004.9
20260506210106 61 128 3.0 10.0 0.02 0.18 0.16 92 1004.9
20260506204606 61 101 5.0 11.0 0.05 0.18 0.16 92 1005.0
20260506203057 61 107 4.0 13.0 0.06 0.18 0.16 92 1005.2
20260506201556 61 85 4.0 8.0 0.05 0.17 0.15 92 1005.3
20260506200055 61 93 3.0 7.0 0.04 0.16 0.14 92 1005.3
20260506194555 61 117 3.0 7.0 0.02 0.13 0.11 91 1005.6
20260506193053 61 111 1.0 6.0 0.02 0.12 0.10 92 1005.6
20260506191556 61 86 2.0 5.0 0.04 0.12 0.10 92 1005.4
20260506190049 61 99 1.0 4.0 0.05 0.11 0.09 92 1005.9
20260506184559 61 134 1.0 4.0 0.07 0.11 0.09 92 1006.2
20260506183046 61 157 1.0 3.0 0.08 0.10 0.08 92 1006.6
20260506181546 61 157 1.0 3.0 0.06 0.08 0.06 91 1006.6
20260506180045 61 135 1.0 6.0 0.04 0.06 0.04 89 1006.8